Accueil
METAR-TAF:

METAR-TAF

Aéroports :

Pruniers

Romorantin, France

latitude: 47-19N, longitude: 001-41E, altitude: 85 m

Observation

Le bulletin a été fait il y a 21 minutes, à 22:30 UTC
Vent 14 kt de est, variant entre est/nord-est et sud-est
Température 20°C
Humidité 78%
Pression 1003 hPa
Visibilité 10 km ou plus
pluie faible

METAR: LFYR 222230Z AUTO 09014KT 070V130 9999 -RA //////CB 20/16 Q1003

Heure: 00:51 (22:51 UTC)


TAF: absent

Observations et prévisions météorologiques de plus de 4000 aéroports (messages METAR et TAF).

Les stations disponibles sont représentées par des disques jaunes et rouges sur la carte.

Passer la souris dessus pour voir le nom de la station.

Cliquer dessus pour voir les observations et prévisions météorologiques.

Pour changer de carte: cliquez sur les boutons verts avec une croix noire pour zoomer, sur le bouton vert avec un tiret pour effectuer un zoom arrière, ou sur les flèches vertes pour les cartes adjacentes.


METAR-TAF: